Volver al catálogo

BUGSAT 1

ActivoCienciaPO
NORAD 40014·PAYLOAD·🇦🇷 Argentina

Lanzado Jun 19, 2014 desde Dombarovsky

Loading…

Próximos Pases (próximas 24 horas)

TLE

ActualizadoSource: Space-Track

Época: Sep 14, 2026, 12:54 UTC

1 40014U 14033E   26257.53771410  .00004913  00000-0  25493-3 0  9993
2 40014  98.0430 355.3638 0026312 234.0200 125.8592 15.16365266669377

Sigue BUGSAT 1 en tiempo real con AllMySat

Download on the App Store